TimeAKDT,TemperatureF,Dew PointF,Humidity,Sea Level PressureIn,VisibilityMPH,Wind Direction,Wind SpeedMPH,Gust SpeedMPH,PrecipitationIn,Events,Conditions,WindDirDegrees,DateUTC
12:53 AM,28.0,26.1,92,29.92,10.0,Calm,Calm,-,N/A,,Clear,0,2013-08-27 08:53:00
1:53 AM,28.0,24.1,85,29.92,10.0,Calm,Calm,-,N/A,,Clear,0,2013-08-27 09:53:00
2:53 AM,26.1,24.1,92,29.93,10.0,Calm,Calm,-,N/A,,Clear,0,2013-08-27 10:53:00
3:53 AM,25.0,23.0,92,29.93,10.0,Calm,Calm,-,N/A,,Clear,0,2013-08-27 11:53:00
4:53 AM,24.1,21.9,91,29.93,10.0,Calm,Calm,-,N/A,,Clear,0,2013-08-27 12:53:00
5:53 AM,23.0,19.9,88,29.93,10.0,Calm,Calm,-,N/A,,Clear,0,2013-08-27 13:53:00
6:53 AM,24.1,21.0,88,29.93,10.0,Calm,Calm,-,N/A,,Clear,0,2013-08-27 14:53:00
7:53 AM,30.9,28.0,89,29.92,10.0,Calm,Calm,-,N/A,,Clear,0,2013-08-27 15:53:00
8:53 AM,37.9,33.1,83,29.91,10.0,Calm,Calm,-,N/A,,Clear,0,2013-08-27 16:53:00
9:53 AM,45.0,33.1,63,29.90,10.0,NE,4.6,-,N/A,,Clear,50,2013-08-27 17:53:00
10:53 AM,50.0,32.0,50,29.89,10.0,Variable,3.5,-,N/A,,Clear,0,2013-08-27 18:53:00
11:53 AM,54.0,32.0,43,29.86,10.0,Variable,4.6,-,N/A,,Clear,0,2013-08-27 19:53:00
12:53 PM,57.9,30.9,36,29.84,10.0,SE,9.2,-,N/A,,Clear,130,2013-08-27 20:53:00
1:53 PM,59.0,30.9,35,29.82,10.0,ESE,5.8,-,N/A,,Clear,120,2013-08-27 21:53:00
2:53 PM,63.0,33.1,33,29.81,10.0,SE,8.1,-,N/A,,Clear,130,2013-08-27 22:53:00
3:53 PM,63.0,33.1,33,29.79,10.0,SE,9.2,-,N/A,,Clear,140,2013-08-27 23:53:00
4:53 PM,63.0,32.0,31,29.77,10.0,SSE,5.8,-,N/A,,Clear,150,2013-08-28 00:53:00
5:53 PM,63.0,33.1,33,29.75,10.0,Calm,Calm,-,N/A,,Clear,0,2013-08-28 01:53:00
6:53 PM,62.1,35.1,37,29.74,10.0,Variable,3.5,-,N/A,,Clear,0,2013-08-28 02:53:00
7:53 PM,57.9,36.0,44,29.73,10.0,Calm,Calm,-,N/A,,Clear,0,2013-08-28 03:53:00
8:53 PM,48.0,37.0,66,29.74,10.0,Calm,Calm,-,N/A,,Clear,0,2013-08-28 04:53:00
9:53 PM,42.1,36.0,79,29.75,10.0,Calm,Calm,-,N/A,,Clear,0,2013-08-28 05:53:00
10:53 PM,37.0,33.1,86,29.75,10.0,Calm,Calm,-,N/A,,Clear,0,2013-08-28 06:53:00
11:53 PM,34.0,30.0,85,29.75,10.0,Calm,Calm,-,N/A,,Clear,0,2013-08-28 07:53:00